Theta_e
283 280 279 281 281 278 279 277 276 277 278 277 277 277 278 279 279 279 279 278 278 279 281 281 281 280 280 279 279 280 280 280 280 278 277 277 276 278 279 279 281 281 281 281
281 277 280 281 281 279 279 277 276 277 278 276 274 276 277 276 277 280 281 279 279 279 278 279 279 278 279 279 279 279 280 280 280 279 278 278 277 277 278 279 280 281 281 280
278 276 279 280 278 279 277 277 275 276 276 273 272 274 274 277 276 278 280 280 279 280 279 277 278 277 277 277 278 279 279 280 280 280 278 278 278 277 278 278 279 280 280 280
275 276 278 277 278 278 276 277 277 276 275 272 271 269 271 274 276 277 278 278 279 279 279 278 278 277 276 277 278 279 280 279 280 280 278 278 277 276 276 277 278 279 280 279
275 274 275 276 277 277 276 276 276 275 273 271 268 268 272 273 275 277 277 278 279 279 280 279 280 280 279 278 277 277 278 279 279 279 279 278 277 276 276 277 278 278 279 279
273 275 275 275 277 276 277 277 277 275 272 264 269 270 271 273 277 276 276 278 279 279 279 280 280 280 278 277 277 276 277 278 279 278 278 278 277 277 277 277 277 277 277 278
273 274 274 277 275 277 276 275 270 267 263 266 268 268 273 276 276 277 278 278 278 279 279 278 277 278 277 277 276 276 277 277 278 278 278 278 277 277 277 277 277 277 276 276
271 269 273 276 275 275 274 274 270 264 264 267 270 267 274 276 276 277 278 278 278 278 278 278 278 278 278 278 276 277 277 277 277 277 278 277 277 277 278 277 277 277 277 277
268 270 272 275 274 275 273 271 274 267 262 264 269 271 277 277 276 276 277 277 277 277 277 278 277 277 277 277 277 277 277 277 277 277 278 277 277 277 277 277 277 277 277 278
274 267 272 273 273 273 272 275 271 268 263 261 267 266 272 275 276 276 276 277 277 277 277 278 277 277 277 278 278 277 277 278 278 278 277 278 277 277 278 277 277 277 277 278
271 273 268 272 269 270 269 269 269 271 268 264 263 269 274 279 278 278 278 278 277 277 278 278 277 277 277 277 277 277 277 277 277 278 278 277 278 278 278 278 277 277 278 278
276 268 262 266 268 270 268 269 270 267 264 264 266 268 276 277 277 278 277 278 277 277 277 277 278 277 277 276 276 277 277 277 278 278 278 278 278 278 277 277 277 278 278 278
274 267 260 266 266 268 264 270 273 270 269 264 265 271 275 276 275 276 278 277 278 277 277 277 277 277 277 276 277 276 277 278 278 278 277 277 277 277 277 277 278 278 276 276
278 262 266 269 269 266 261 266 272 268 261 266 269 270 274 276 275 275 276 277 277 278 277 276 276 277 277 278 277 276 277 277 277 277 277 277 277 277 277 277 277 278 277 274
273 264 259 261 267 264 263 261 269 269 273 271 274 273 276 277 277 277 277 276 276 277 276 276 276 276 277 277 277 277 276 277 277 277 277 277 277 277 277 277 277 277 277 277
268 263 259 261 268 268 264 265 267 272 271 271 271 271 277 277 276 275 276 276 277 278 277 276 277 278 278 278 277 278 276 276 277 276 277 277 277 277 277 278 277 277 277 277
268 263 262 262 267 266 266 269 265 268 266 274 271 278 276 275 277 277 276 277 278 278 277 277 277 277 276 275 276 273 273 275 275 275 276 276 276 276 275 276 276 275 274 274
266 264 265 258 261 260 272 268 271 273 273 274 273 273 276 277 274 274 275 277 277 276 276 276 275 272 272 272 272 272 273 273 272 272 272 273 273 273 272 271 271 270 270 268
270 269 267 266 256 268 274 268 268 269 274 276 276 279 273 270 271 272 273 274 275 275 273 271 271 270 269 269 270 269 269 269 269 269 269 270 271 270 270 269 267 266 266 264
270 270 271 259 261 261 276 272 273 273 272 277 278 278 279 274 272 277 271 272 271 271 270 269 269 268 268 268 268 267 265 265 265 266 267 268 268 268 266 267 266 266 264 263
265 265 267 268 265 266 270 270 273 270 274 273 276 278 275 276 272 268 270 269 270 269 268 267 267 266 266 266 266 263 263 262 263 264 265 265 266 266 266 265 265 263 262 262
266 266 266 266 266 266 271 272 275 274 269 272 271 273 274 269 269 268 267 267 268 267 266 266 264 263 264 265 264 262 260 261 262 262 262 262 264 266 265 264 264 263 262 262
269 271 270 272 272 271 273 272 273 272 273 271 271 271 271 269 268 267 266 266 265 265 265 264 262 260 259 261 262 260 260 260 260 260 259 260 262 263 264 263 261 261 261 261
268 269 271 273 272 271 272 271 273 274 274 274 273 271 271 267 267 266 265 265 264 264 263 262 261 259 258 259 259 259 260 259 259 258 259 259 259 260 260 261 262 261 259 257
270 271 270 270 271 273 273 275 275 273 272 271 271 271 269 268 267 267 265 265 264 263 263 262 261 259 258 258 257 258 259 260 259 258 258 259 259 259 258 259 260 262 261 263
269 268 270 272 274 276 274 274 274 272 271 271 269 269 269 269 267 266 264 264 263 262 262 261 260 259 258 257 256 256 257 259 259 258 258 258 257 257 257 257 257 262 264 266
Wind_Speed
1 3 8 7 5 3 4 4 4 2 1 2 6 8 9 6 6 8 9 9 9 10 5 6 7 7 7 6 7 7 8 6 5 2 3 3 3 2 3 4 5 5 5 6
3 6 2 3 4 4 3 3 4 1 1 1 2 11 11 8 9 11 13 10 10 6 7 8 8 7 8 8 8 7 7 7 5 3 2 3 3 2 2 2 4 5 5 5
6 1 1 2 4 5 3 5 4 2 1 0 5 9 6 6 4 5 8 7 7 12 11 9 9 9 8 9 9 9 8 8 5 4 4 4 4 2 2 2 2 3 5 5
2 1 3 2 4 4 5 2 3 4 3 4 2 8 6 6 7 7 9 10 10 11 8 7 10 9 9 10 7 8 8 8 6 7 4 5 3 3 2 2 1 2 4 5
4 2 3 3 2 1 3 2 4 2 3 3 1 0 10 1 7 10 9 10 10 11 12 13 14 14 10 8 9 7 8 7 6 7 6 5 4 2 2 2 3 2 3 4
2 0 1 2 2 2 7 5 5 4 3 3 6 7 8 8 11 5 5 10 11 10 10 10 9 8 8 7 7 7 8 7 7 7 7 8 8 6 4 3 3 1 1 2
1 2 1 2 5 5 2 5 3 4 3 8 1 2 11 5 7 7 13 11 10 10 10 9 10 10 9 11 9 8 8 8 7 8 7 7 7 7 7 5 4 4 2 0
7 5 8 5 2 6 5 4 8 9 5 4 2 10 11 5 4 5 6 9 8 9 9 9 11 11 11 12 10 9 9 8 8 8 8 7 8 5 5 6 4 4 4 3
5 3 2 3 2 1 7 6 3 8 2 4 5 9 12 6 5 5 9 9 11 10 9 9 8 9 9 10 12 13 10 8 9 9 7 7 7 7 6 7 5 3 3 3
5 2 2 1 1 0 3 2 3 3 2 5 6 7 9 6 13 9 10 14 10 8 8 8 8 9 7 8 9 8 9 11 8 8 7 7 7 7 6 6 7 6 5 5
4 5 1 2 7 8 2 2 2 1 5 7 2 11 11 13 15 22 17 13 11 10 9 8 8 8 8 7 9 10 9 9 8 9 7 7 7 7 7 6 7 7 6 6
5 6 5 10 1 3 2 6 7 7 7 4 3 13 2 6 6 9 11 12 8 8 9 8 8 8 8 8 8 10 9 10 10 9 8 9 7 7 6 6 7 6 7 6
8 4 3 7 6 4 6 7 4 3 2 8 7 8 2 3 3 6 12 10 9 9 8 7 7 7 8 7 7 8 8 10 8 8 8 7 7 7 7 7 6 6 5 4
5 1 9 11 8 6 6 7 15 7 5 6 12 5 5 7 8 6 8 10 11 11 10 7 7 7 6 6 7 7 7 7 7 7 8 8 8 9 8 6 6 6 4 4
4 6 3 4 3 4 6 6 15 19 18 13 10 17 13 9 11 9 8 7 10 11 10 9 8 7 6 5 5 5 5 6 6 7 7 7 5 5 5 6 5 4 5 3
1 4 3 6 1 3 5 9 13 20 7 14 10 23 8 6 5 7 10 12 15 13 13 9 8 7 6 5 4 3 4 5 6 6 5 5 5 5 5 5 6 6 4 3
6 6 4 9 3 0 12 17 15 9 8 17 19 33 6 6 10 11 13 17 19 16 13 11 10 8 6 5 6 6 6 7 8 8 7 6 6 6 5 5 6 6 6 6
8 5 2 4 3 5 10 2 12 23 9 20 12 6 9 10 2 2 5 13 14 14 14 12 9 8 7 6 8 9 9 10 10 10 9 8 8 8 7 8 7 6 5 5
6 5 3 5 6 12 18 6 10 13 17 25 29 23 6 2 3 7 3 3 7 10 10 10 9 9 9 9 9 11 11 10 11 10 9 8 8 8 7 8 7 5 5 5
5 2 6 4 7 14 22 9 11 6 18 15 23 25 22 9 6 11 6 6 13 15 14 14 12 11 11 9 10 13 11 10 10 8 8 8 8 9 8 7 7 4 4 4
5 2 17 13 9 14 7 6 5 9 11 5 10 9 11 12 4 5 13 14 13 14 16 14 13 12 10 9 10 13 11 11 7 7 8 8 8 9 7 7 5 5 5 5
13 13 9 4 8 22 6 4 16 3 3 1 1 4 7 11 11 12 14 15 15 16 15 13 13 12 10 9 11 12 12 6 7 8 9 8 8 7 6 7 6 6 5 6
8 11 10 15 13 5 7 1 1 1 2 1 3 2 12 15 11 13 14 15 13 13 13 12 13 13 10 10 9 12 7 6 7 9 9 8 8 8 7 7 6 5 5 4
6 2 3 4 7 7 7 3 2 1 2 3 4 9 9 16 15 17 15 14 13 12 12 12 13 13 12 10 11 10 8 6 8 9 8 7 7 6 6 5 4 4 3 3
7 12 7 7 2 1 4 5 6 6 7 10 10 7 13 18 16 16 15 14 13 13 12 10 12 13 13 10 10 8 6 5 8 8 6 6 5 5 5 5 4 4 1 3
8 10 9 10 9 3 2 9 9 9 8 10 14 14 11 15 17 18 14 13 12 13 12 12 12 12 11 11 10 9 7 6 6 7 6 5 4 4 5 4 4 9 9 12
Wind_Direction
16 126 208 198 184 100 137 192 215 221 102 203 233 265 250 205 216 226 216 210 213 217 208 180 177 167 160 164 162 162 148 158 140 118 105 79 84 43 42 45 48 48 43 45
54 233 162 110 161 165 163 178 225 283 184 175 349 270 253 197 222 207 207 208 208 188 180 184 185 177 177 171 181 172 173 168 175 141 136 127 139 91 91 52 50 49 50 45
169 249 7 151 147 163 201 184 184 240 167 207 333 283 230 214 222 204 212 197 186 193 188 190 187 192 180 186 185 182 181 178 179 148 107 79 75 56 52 34 43 32 61 59
222 56 162 143 189 153 207 173 142 139 130 233 47 275 275 225 225 212 206 197 197 190 187 182 187 188 193 200 183 183 180 176 179 160 142 148 155 157 199 142 129 64 59 57
219 154 160 173 161 146 201 105 111 85 97 356 203 88 267 70 239 228 208 202 202 193 187 190 193 197 196 173 187 186 177 176 163 164 165 156 147 137 129 102 118 78 53 60
90 298 360 97 91 13 152 83 60 64 74 332 211 170 266 194 208 181 190 197 193 190 194 197 191 174 181 174 178 180 176 182 171 171 173 171 165 154 143 152 158 134 39 27
96 200 199 188 98 14 63 107 24 350 4 227 324 213 244 245 225 210 182 189 191 186 185 186 178 182 180 184 186 179 176 186 178 172 175 181 182 168 171 171 170 165 161 156
168 283 177 167 216 178 190 168 161 198 200 240 343 235 247 222 244 214 185 167 164 182 189 191 190 187 187 188 182 179 177 180 177 177 183 175 169 168 177 178 177 185 180 177
142 276 356 30 359 62 187 211 159 104 43 41 216 283 293 193 215 206 176 166 192 193 186 192 183 185 181 179 185 185 179 184 180 185 178 178 173 168 182 188 183 181 173 175
194 36 358 350 329 349 159 239 109 5 168 257 266 274 242 235 206 193 198 201 200 191 186 190 187 184 184 181 180 177 182 190 188 179 180 177 176 180 179 171 189 186 181 169
124 111 340 45 204 184 143 231 10 133 146 175 246 259 214 212 188 195 199 197 190 187 190 186 186 183 181 168 170 182 182 178 180 184 182 175 184 181 175 181 191 189 179 179
192 124 159 206 352 10 145 208 173 138 232 234 182 261 244 243 213 181 185 196 191 183 182 180 178 170 172 180 173 183 185 187 192 181 176 192 179 171 183 195 195 184 193 187
196 235 34 335 352 356 212 197 186 127 88 209 160 260 47 290 245 218 186 186 182 178 172 176 165 173 175 182 182 185 182 197 185 172 174 176 184 183 192 197 197 191 191 190
123 133 178 208 197 130 193 208 189 145 146 167 229 284 287 252 236 209 208 186 176 177 177 174 174 176 171 177 181 187 196 187 169 171 173 183 191 197 192 184 189 198 190 180
143 221 157 263 216 143 194 186 193 206 211 197 245 229 229 242 219 212 191 161 167 177 179 182 173 168 158 157 171 188 199 177 165 170 171 199 180 175 173 178 180 181 189 192
63 254 107 294 300 209 267 221 211 224 265 271 278 273 203 240 130 174 186 177 185 188 183 167 158 146 140 130 137 137 168 160 144 150 151 143 152 160 172 165 160 157 156 141
155 145 103 263 336 267 292 205 187 199 205 214 224 242 167 234 227 210 195 190 189 186 165 153 143 129 108 93 94 87 87 96 98 98 85 88 96 90 80 88 93 86 81 84
152 151 147 216 23 239 247 356 194 202 204 216 263 242 197 218 197 282 174 183 181 158 148 137 125 110 98 94 86 86 81 83 87 81 79 79 87 87 78 73 73 73 68 70
156 151 190 187 199 295 281 181 150 171 246 209 221 237 210 133 40 272 197 156 144 131 116 111 112 112 107 97 96 92 81 82 81 77 72 64 76 78 75 70 61 52 59 49
149 147 205 134 197 221 273 184 163 126 273 159 201 228 215 148 198 234 132 105 109 111 117 118 110 104 96 89 94 93 85 83 76 76 78 71 76 81 77 74 68 58 60 63
153 188 207 217 238 279 219 187 151 148 249 197 202 221 141 198 228 110 107 97 100 105 107 103 96 92 88 90 94 88 86 76 77 76 75 71 75 76 76 75 66 57 55 59
167 167 188 180 214 258 142 48 187 243 344 57 323 168 134 115 116 109 107 110 112 109 105 101 97 85 72 82 95 91 82 77 74 77 75 68 61 71 68 69 62 53 45 51
210 195 184 190 211 212 207 45 322 199 145 242 116 80 124 124 123 117 116 110 105 104 106 103 99 91 64 64 79 94 85 84 83 80 71 65 63 61 59 64 58 54 42 43
251 155 216 120 223 198 206 186 162 3 115 90 85 129 124 125 124 116 114 111 107 106 105 106 100 91 83 73 76 85 96 88 86 83 76 67 69 65 57 60 56 57 34 19
171 148 172 262 265 225 220 200 145 113 98 94 83 91 129 127 126 125 120 116 114 112 109 104 105 105 101 95 83 77 79 92 91 86 79 77 70 63 52 47 32 27 320 350
181 173 181 222 180 171 125 140 130 128 122 115 114 114 120 123 121 117 112 112 115 115 112 106 107 108 106 96 84 66 54 67 92 90 79 65 67 53 48 31 8 10 6 351